Time,TemperatureF,DewpointF,PressureIn,WindDirection,WindDirectionDegrees,WindSpeedMPH,WindSpeedGustMPH,Humidity,HourlyPrecipIn,Conditions,Clouds,dailyrainin,SoftwareType,DateUTC
2013-08-24 00:10:00,53.0,48.0,29.73,NNE,12,0.0,0.0,83,0.00,,,0.00,,2013-08-24 07:10:00,
2013-08-24 00:11:00,54.0,49.0,29.74,NNE,12,0.0,0.0,82,0.00,,,0.00,,2013-08-24 07:11:00,
2013-08-24 00:21:00,54.0,49.0,29.74,NNE,12,0.0,0.0,82,0.00,,,0.00,,2013-08-24 07:21:00,
2013-08-24 00:53:00,53.0,48.0,29.73,NNE,12,0.0,0.0,83,0.00,,,0.00,,2013-08-24 07:53:00,
2013-08-24 01:02:00,53.0,48.0,29.73,NNE,12,0.0,0.0,83,0.00,,,0.00,,2013-08-24 08:02:00,
2013-08-24 01:10:00,52.0,48.0,29.74,NNE,12,0.0,0.0,85,0.00,,,0.00,,2013-08-24 08:10:00,
2013-08-24 01:52:00,52.0,48.0,29.74,NNE,12,0.0,0.0,85,0.00,,,0.00,,2013-08-24 08:52:00,
2013-08-24 02:01:00,52.0,48.0,29.74,NNE,12,0.0,0.0,85,0.00,,,0.00,,2013-08-24 09:01:00,
2013-08-24 02:53:00,50.0,46.0,29.75,NNE,12,0.0,0.0,87,0.00,,,0.00,,2013-08-24 09:53:00,
2013-08-24 03:13:00,50.0,46.0,29.75,NNE,12,0.0,0.0,87,0.00,,,0.00,,2013-08-24 10:13:00,
2013-08-24 03:23:00,50.0,46.0,29.75,NNE,12,0.0,0.0,87,0.00,,,0.00,,2013-08-24 10:23:00,
2013-08-24 03:52:00,49.0,46.0,29.75,NNE,12,0.0,0.0,89,0.00,,,0.00,,2013-08-24 10:52:00,
2013-08-24 04:22:00,48.0,45.0,29.75,NNE,12,0.0,0.0,88,0.00,,,0.00,,2013-08-24 11:22:00,
2013-08-24 04:52:00,48.0,45.0,29.74,NNE,12,0.0,0.0,88,0.00,,,0.00,,2013-08-24 11:52:00,
2013-08-24 05:21:00,47.0,44.0,29.75,NNE,12,0.0,0.0,89,0.00,,,0.00,,2013-08-24 12:21:00,
2013-08-24 05:32:00,47.0,44.0,29.75,NNE,12,0.0,0.0,89,0.00,,,0.00,,2013-08-24 12:32:00,
2013-08-24 05:52:00,46.0,43.0,29.75,NNE,12,0.0,0.0,90,0.00,,,0.00,,2013-08-24 12:52:00,
2013-08-24 06:22:00,46.0,43.0,29.76,NNE,12,0.0,0.0,90,0.00,,,0.00,,2013-08-24 13:22:00,
2013-08-24 06:52:00,46.0,43.0,29.76,NNE,12,0.0,0.0,90,0.00,,,0.00,,2013-08-24 13:52:00,
2013-08-24 07:11:00,45.0,42.0,29.77,NNE,12,0.0,0.0,90,0.00,,,0.00,,2013-08-24 14:11:00,
2013-08-24 07:21:00,45.0,42.0,29.77,NNE,12,0.0,0.0,90,0.00,,,0.00,,2013-08-24 14:21:00,
2013-08-24 07:52:00,46.0,44.0,29.78,West,274,0.0,0.0,91,0.00,,,0.00,,2013-08-24 14:52:00,
2013-08-24 08:21:00,47.0,45.0,29.78,West,274,0.0,0.0,92,0.00,,,0.00,,2013-08-24 15:21:00,
2013-08-24 08:54:00,51.0,49.0,29.75,West,274,0.0,0.0,93,0.00,,,0.00,,2013-08-24 15:54:00,
2013-08-24 09:23:00,53.0,51.0,29.78,West,274,0.0,0.0,94,0.00,,,0.00,,2013-08-24 16:23:00,
2013-08-24 09:53:00,55.0,54.0,29.78,NNE,27,0.0,0.0,95,0.00,,,0.00,,2013-08-24 16:53:00,
2013-08-24 10:23:00,60.0,58.0,29.79,NE,48,0.0,1.0,93,0.00,,,0.00,,2013-08-24 17:23:00,
2013-08-24 10:52:00,62.0,58.0,29.79,NNW,335,0.0,3.0,88,0.00,,,0.00,,2013-08-24 17:52:00,
2013-08-24 11:13:00,70.0,58.0,29.79,NNW,334,0.0,3.0,66,0.00,,,0.00,,2013-08-24 18:13:00,
2013-08-24 11:22:00,70.0,58.0,29.79,NNW,334,0.0,3.0,66,0.00,,,0.00,,2013-08-24 18:22:00,
2013-08-24 11:53:00,75.0,60.0,29.78,SSE,158,0.0,3.0,59,0.00,,,0.00,,2013-08-24 18:53:00,
2013-08-24 12:52:00,81.0,59.0,29.77,North,357,0.0,1.0,48,0.00,,,0.00,,2013-08-24 19:52:00,
2013-08-24 13:02:00,81.0,59.0,29.77,North,357,0.0,1.0,48,0.00,,,0.00,,2013-08-24 20:02:00,
2013-08-24 14:55:00,83.0,55.0,29.76,NNE,16,1.0,6.0,38,0.00,,,0.00,,2013-08-24 21:55:00,
2013-08-24 15:23:00,81.0,54.0,29.75,NNE,13,2.0,7.0,40,0.00,,,0.00,,2013-08-24 22:23:00,
2013-08-24 15:53:00,82.0,57.0,29.75,West,265,1.0,8.0,43,0.00,,,0.00,,2013-08-24 22:53:00,
2013-08-24 16:12:00,81.0,54.0,29.75,NNW,345,2.0,9.0,40,0.00,,,0.00,,2013-08-24 23:12:00,
2013-08-24 16:22:00,81.0,54.0,29.75,NNW,345,2.0,9.0,40,0.00,,,0.00,,2013-08-24 23:22:00,
2013-08-24 16:52:00,79.0,56.0,29.75,WNW,295,1.0,11.0,45,0.00,,,0.00,,2013-08-24 23:52:00,
2013-08-24 17:21:00,80.0,55.0,29.76,NNW,336,2.0,7.0,43,0.00,,,0.00,,2013-08-25 00:21:00,
2013-08-24 17:52:00,80.0,57.0,29.75,NNW,341,1.0,12.0,45,0.00,,,0.00,,2013-08-25 00:52:00,
2013-08-24 18:11:00,80.0,57.0,29.75,NW,321,1.0,7.0,45,0.00,,,0.00,,2013-08-25 01:11:00,
2013-08-24 18:22:00,80.0,57.0,29.75,South,170,1.0,7.0,45,0.00,,,0.00,,2013-08-25 01:22:00,
2013-08-24 18:42:00,78.0,56.0,29.75,ENE,57,0.0,2.0,47,0.00,,,0.00,,2013-08-25 01:42:00,
2013-08-24 18:52:00,77.0,56.0,29.76,NE,34,2.0,6.0,49,0.00,,,0.00,,2013-08-25 01:52:00,
2013-08-24 19:22:00,73.0,56.0,29.76,NE,37,0.0,6.0,56,0.00,,,0.00,,2013-08-25 02:22:00,
2013-08-24 19:52:00,70.0,55.0,29.77,NW,307,0.0,4.0,59,0.00,,,0.00,,2013-08-25 02:52:00,
2013-08-24 20:11:00,69.0,55.0,29.78,NE,48,0.0,1.0,62,0.00,,,0.00,,2013-08-25 03:11:00,
2013-08-24 20:23:00,69.0,55.0,29.78,NE,48,0.0,1.0,62,0.00,,,0.00,,2013-08-25 03:23:00,
2013-08-24 20:54:00,68.0,56.0,29.78,SSE,160,0.0,2.0,66,0.00,,,0.00,,2013-08-25 03:54:00,
2013-08-24 21:02:00,-999.0,-99.9,29.78,North,358,0.0,3.0,-999,-99.99,,,-99.99,,2013-08-25 04:02:00,
2013-08-24 21:14:00,67.0,56.0,29.78,North,358,0.0,3.0,68,0.00,,,0.00,,2013-08-25 04:14:00,
2013-08-24 21:24:00,67.0,56.0,29.78,North,358,0.0,3.0,68,0.00,,,0.00,,2013-08-25 04:24:00,
2013-08-24 21:54:00,66.0,56.0,29.80,NW,318,0.0,3.0,71,0.00,,,0.00,,2013-08-25 04:54:00,
2013-08-24 22:22:00,65.0,56.0,29.80,North,360,0.0,1.0,72,0.00,,,0.00,,2013-08-25 05:22:00,
2013-08-24 22:52:00,65.0,56.0,29.81,North,350,0.0,2.0,73,0.00,,,0.00,,2013-08-25 05:52:00,
2013-08-24 23:21:00,65.0,57.0,29.80,ESE,105,0.0,2.0,75,0.00,,,0.00,,2013-08-25 06:21:00,
2013-08-24 23:52:00,64.0,57.0,29.80,ESE,105,0.0,1.0,77,0.00,,,0.00,,2013-08-25 06:52:00,